Powrót do katalogu

DELTA 1 DEB

AktywnyPO
NORAD 42555·DEBRIS·🇺🇸 United States

Wystrzelony Jul 23, 1972 z Vandenberg Space Force Base

Loading…

Następne Przeloty (najbliższe 24 godziny)

TLE

Starzejące sięSource: Space-Track

Epoka: Sep 6, 2026, 12:03 UTC

1 42555U 72058JN  26249.50245428  .00000029  00000-0  45063-4 0  9999
2 42555  97.2150 141.2039 0539491 237.2587 117.5458 13.39747549624625

Śledź DELTA 1 DEB w czasie rzeczywistym z AllMySat

Download on the App Store